GFSFLT2_925_spd_234.txt.gz
Wind_Speed
27 25 23 22 23 22 20 20 19 17 16 15 14 14 14 15 16 16 15 16 17 16 14 12 11 10 9 7 4 3 3 4
27 25 25 24 23 22 21 20 19 18 17 15 15 14 14 15 15 15 15 17 18 16 13 11 9 8 7 5 5 4 1 8
26 25 25 25 24 23 22 21 20 18 17 16 16 14 15 15 14 14 15 16 17 16 11 10 8 8 6 5 6 5 10 8
28 26 27 25 20 23 24 23 22 21 19 19 17 14 13 13 14 14 15 17 17 16 13 11 10 6 7 6 8 6 8 4
30 29 28 28 24 24 25 23 23 22 20 18 18 17 15 18 18 17 17 19 19 18 16 15 13 10 14 10 7 5 6 9
31 31 31 29 25 25 25 24 24 24 23 22 22 21 21 21 20 18 20 21 21 18 18 16 14 14 15 12 9 11 9 9
34 34 33 33 28 28 27 26 27 25 26 26 24 23 22 22 22 20 20 20 21 21 19 19 18 17 17 15 12 11 14 13
35 35 35 34 33 30 31 29 29 27 27 29 28 26 23 24 24 22 23 22 24 23 23 22 22 20 20 19 17 16 15 15
38 36 36 35 37 29 32 30 29 31 28 29 32 30 26 25 25 23 23 25 24 24 22 23 22 22 21 19 21 21 21 19
39 36 37 37 36 30 29 29 31 33 30 30 33 34 29 27 26 28 25 24 27 24 24 24 23 22 21 23 21 20 20 22
39 38 37 38 34 33 28 31 30 28 31 30 33 36 36 28 32 28 28 27 24 27 27 24 24 23 24 21 22 23 22 24
39 39 36 37 33 32 30 28 29 31 29 34 30 37 37 38 29 32 28 31 28 27 28 28 27 23 22 23 26 28 27 25
40 38 38 36 34 32 31 34 30 32 33 31 36 36 38 39 37 31 32 32 33 31 28 27 28 27 22 23 21 20 28 27
40 42 40 37 36 34 34 30 32 31 33 33 35 36 37 40 39 37 36 33 34 33 33 28 29 24 22 14 4 17 30 30
38 41 42 41 35 31 29 28 27 29 32 37 38 40 40 42 42 38 37 37 35 38 35 35 26 29 27 13 3 5 6 24
36 38 41 43 42 35 34 32 31 36 36 36 39 41 42 42 41 41 38 36 37 37 38 35 33 25 28 36 32 11 2 3
30 33 39 40 43 41 39 34 33 33 30 34 37 38 43 42 42 41 41 40 36 39 34 39 35 31 28 24 28 27 27 9
38 36 33 40 45 47 42 39 37 32 33 33 35 36 39 43 43 43 40 40 40 39 41 37 39 34 31 31 23 19 18 13
30 36 39 42 40 45 48 45 41 40 38 34 33 33 34 40 45 42 42 43 40 38 37 39 38 37 34 33 31 30 23 23
25 26 36 36 39 39 36 45 42 39 39 35 34 35 36 37 41 43 42 40 39 38 36 37 37 35 37 33 28 30 29 27

GFSFLT2_925_spd_237.txt.gz
Wind_Speed
29 27 27 27 26 25 24 22 20 19 18 17 17 16 15 15 16 15 15 15 16 15 14 12 12 11 10 7 4 3 3 5
30 29 29 28 27 25 24 23 22 19 18 18 17 16 17 17 17 16 15 15 17 15 12 11 10 9 8 6 4 3 1 4
31 31 30 29 28 26 24 23 22 20 19 19 19 18 18 18 18 17 17 17 17 14 12 10 9 8 7 5 5 3 6 9
34 33 32 30 29 28 26 26 25 23 22 21 20 19 20 19 18 18 18 19 20 17 13 11 10 9 8 5 5 3 6 4
37 35 34 33 32 30 29 28 26 25 23 22 21 20 19 20 20 20 20 20 22 21 17 15 13 12 10 9 8 4 8 2
38 37 37 35 32 33 32 31 29 28 26 24 24 23 20 22 22 22 22 23 24 23 21 18 16 15 13 11 10 12 12 6
38 38 39 37 33 33 35 33 32 31 28 27 27 26 26 25 25 23 23 23 25 25 23 21 19 18 17 15 15 13 15 13
40 40 40 40 34 35 35 35 34 32 32 31 29 30 26 28 27 26 24 24 25 26 24 22 21 19 20 20 17 18 17 18
42 42 42 42 37 35 33 36 33 34 34 34 32 32 31 30 29 28 28 24 22 24 26 24 22 22 23 20 21 22 23 23
45 41 43 43 43 34 36 35 36 35 35 34 35 34 34 29 32 31 26 27 25 26 26 29 27 27 27 26 25 24 23 23
44 42 44 44 44 35 38 36 38 37 37 36 37 35 36 36 33 33 32 27 29 30 31 30 29 27 29 24 25 28 28 25
46 43 43 45 40 42 30 38 38 36 39 39 39 39 37 39 34 35 32 33 31 31 35 30 31 30 27 28 29 29 29 31
47 44 42 42 37 37 35 34 38 39 35 40 40 40 42 40 42 35 37 37 38 35 30 35 34 29 26 25 27 30 32 39
47 48 47 46 40 37 35 33 32 34 38 37 41 43 41 45 44 46 39 41 37 39 36 32 34 35 24 11 3 19 33 32
47 49 51 49 44 34 30 29 29 29 36 40 46 42 45 44 47 45 45 42 44 40 43 40 30 33 34 15 2 6 2 16
52 50 49 50 48 40 37 35 31 38 40 37 38 46 45 47 48 48 46 46 43 46 43 44 36 29 30 37 33 5 4 3
50 52 50 46 47 45 43 36 36 31 32 34 37 39 46 49 49 48 48 48 47 45 44 46 43 32 33 30 32 30 26 8
41 42 42 45 47 46 44 42 37 33 34 36 37 41 44 47 51 51 51 46 48 49 48 45 44 41 34 36 30 18 23 16
33 38 40 46 48 49 47 46 45 42 40 39 35 34 36 44 51 48 48 51 46 42 44 44 44 42 43 39 37 36 29 27
29 29 30 35 41 45 48 47 43 42 39 36 39 37 40 43 49 48 49 47 46 44 42 45 41 46 42 41 37 37 37 29

GFSFLT2_925_spd_243.txt.gz
Wind_Speed
37 35 33 31 31 29 27 26 25 23 22 20 18 18 18 18 17 16 18 18 19 18 18 17 15 14 11 8 7 5 2 4
38 36 34 32 30 29 27 26 25 24 23 22 19 18 17 17 17 16 17 17 18 17 17 16 14 13 10 7 5 4 3 5
34 36 35 33 32 30 28 26 25 24 23 23 21 20 19 18 18 17 17 17 17 16 16 15 14 13 11 9 7 5 4 4
28 28 32 35 33 31 30 28 27 26 25 25 23 22 21 20 18 17 17 17 16 15 14 13 13 13 12 10 7 6 4 7
30 29 29 35 36 34 32 31 29 28 26 26 24 23 22 21 20 20 19 18 18 17 15 15 14 13 13 12 8 6 6 6
33 31 31 37 39 38 36 34 33 31 29 28 27 26 25 24 24 23 22 22 22 20 18 16 15 14 14 14 11 8 6 7
38 35 36 40 41 40 38 37 36 34 32 30 29 29 28 27 26 25 25 24 24 23 21 19 18 17 17 16 15 12 10 9
45 41 41 44 45 43 42 40 38 35 33 33 31 30 29 29 28 27 27 26 25 25 24 23 21 19 19 19 19 18 16 15
48 47 44 45 46 44 43 41 39 37 36 34 33 32 31 30 29 29 29 27 25 25 25 25 25 24 24 23 23 23 23 22
41 44 47 47 47 45 44 42 41 40 38 37 35 34 33 32 31 31 29 28 27 27 27 28 29 28 28 28 27 26 25 25
42 45 47 49 47 45 44 43 42 42 41 40 39 37 36 35 34 33 31 30 30 30 30 30 31 32 31 30 29 28 28 28
37 43 45 45 39 39 40 41 42 43 43 43 41 40 39 38 37 36 33 32 32 32 33 31 32 31 30 31 30 30 31 32
42 39 41 45 40 37 36 39 40 42 44 43 43 42 42 41 41 40 36 36 37 36 34 34 33 31 24 27 32 33 34 35
40 44 40 48 43 42 36 34 35 40 42 43 45 44 43 43 44 44 43 41 37 38 36 32 34 31 17 6 4 13 24 34
44 48 47 46 46 37 30 28 25 30 39 46 46 44 44 44 44 44 44 43 41 42 41 39 27 26 31 15 1 5 4 8
47 49 49 51 45 38 41 40 36 43 43 40 43 46 46 45 44 44 44 43 44 43 42 42 35 26 22 34 35 11 3 5
43 45 48 48 46 44 44 42 42 38 34 36 43 46 48 48 47 47 47 46 46 45 40 41 39 33 30 17 29 30 28 11
45 44 47 47 47 49 45 45 39 31 34 34 37 41 46 49 49 49 48 47 47 47 44 42 43 40 37 32 30 15 18 13
42 42 42 43 45 49 48 48 42 39 38 38 35 34 34 47 51 49 50 51 49 45 43 44 45 40 41 38 34 37 33 27
35 37 39 39 41 45 49 48 41 35 30 30 33 36 40 38 44 45 47 47 47 45 43 45 43 42 43 40 38 38 34 33

GFSFLT2_925_spd_246.txt.gz
Wind_Speed
38 35 33 30 29 27 26 26 26 25 24 22 20 19 19 19 19 20 20 21 22 23 21 19 16 13 10 6 5 4 3 3
39 37 34 32 30 27 26 25 25 25 24 22 21 20 19 18 18 19 20 20 20 20 19 17 15 13 9 7 5 4 2 4
36 38 36 33 31 29 26 25 24 24 23 23 21 21 20 19 19 19 19 19 19 19 18 16 15 13 11 9 6 4 4 4
34 40 38 35 33 31 29 27 26 25 25 24 23 22 21 20 19 19 19 19 19 18 17 16 15 14 12 10 8 6 5 6
36 41 39 38 36 34 31 29 27 26 25 25 24 22 21 21 21 20 20 20 20 19 18 17 16 15 14 12 10 8 6 6
36 39 38 32 37 37 36 34 32 31 29 27 26 25 24 24 24 23 22 22 21 20 19 17 17 15 14 13 12 11 8 7
37 36 33 30 33 38 37 37 37 34 32 31 29 28 28 27 26 25 25 23 23 22 20 19 18 16 16 16 15 14 12 11
32 33 32 31 33 38 39 39 38 36 35 34 32 31 29 28 27 26 26 25 24 23 22 20 19 18 18 18 19 18 17 16
36 34 30 30 33 38 40 41 40 40 38 36 35 33 31 30 29 28 27 25 24 23 23 23 23 22 22 21 21 21 22 22
39 38 32 32 33 37 42 43 42 41 39 37 37 36 34 32 31 31 29 27 26 26 25 25 25 25 25 25 25 25 26 27
39 42 39 32 32 37 41 42 43 41 40 39 38 37 36 35 34 33 30 29 29 28 28 27 27 27 27 28 29 29 30 29
44 44 41 40 36 37 39 41 42 42 42 42 40 39 38 37 36 34 32 31 31 30 31 29 28 27 26 28 29 30 31 31
42 43 46 43 41 39 36 40 41 42 44 44 43 42 41 40 39 37 35 35 35 33 32 31 31 27 22 24 29 30 32 34
42 44 43 52 43 40 32 31 35 41 44 46 46 46 45 44 43 42 40 39 37 36 34 31 29 27 11 4 4 9 19 27
41 46 47 48 47 37 32 25 30 32 41 48 52 50 48 47 46 45 44 42 43 42 39 37 23 23 26 12 1 4 4 5
40 42 45 48 44 37 41 40 33 41 41 41 40 50 51 50 49 47 47 46 44 44 42 41 34 23 20 31 31 18 3 6
33 39 41 44 42 47 43 40 41 33 31 32 39 44 51 51 50 50 49 47 47 45 41 42 39 31 29 20 28 30 30 15
23 33 41 42 44 48 45 45 43 34 33 34 36 41 45 50 52 52 52 50 49 47 45 43 42 39 33 32 29 12 15 14
34 21 36 39 43 45 49 47 43 41 38 37 32 31 35 49 53 51 50 53 49 45 43 43 42 41 41 38 35 36 32 28
44 38 18 31 35 39 41 43 40 38 35 32 36 37 38 32 42 42 44 41 42 42 42 44 42 42 41 41 36 38 35 33

GFSFLT2_925_spd_249.txt.gz
Wind_Speed
28 30 32 30 29 27 26 26 24 23 23 22 22 22 21 21 20 20 21 22 23 23 21 18 16 13 10 8 6 5 4 4
27 27 29 30 29 28 27 26 25 23 23 22 21 22 21 20 20 20 20 22 23 21 19 17 14 12 9 7 5 3 1 2
25 28 28 29 30 29 27 26 26 24 22 21 21 20 21 20 20 21 21 21 21 20 19 17 15 12 10 8 6 4 2 3
23 28 28 29 27 29 28 27 25 25 24 23 20 20 18 17 19 20 20 20 20 20 19 17 16 12 11 10 8 6 5 4
22 26 28 27 23 25 24 24 24 24 25 25 22 21 19 17 16 18 19 20 19 19 19 17 16 15 13 12 11 9 6 6
24 23 25 27 24 24 23 23 24 25 27 27 25 25 23 21 21 18 20 18 19 19 17 17 18 17 16 15 13 11 9 8
24 26 26 25 23 23 23 23 24 23 28 31 26 27 27 24 23 20 21 21 20 20 19 18 18 17 17 16 16 15 14 12
23 25 26 26 24 22 23 24 23 23 24 31 32 28 26 26 26 24 21 25 21 21 19 18 17 17 17 18 18 17 17 17
26 25 26 26 26 26 24 24 24 25 24 29 35 31 31 28 27 27 26 25 24 23 22 21 19 19 21 20 20 20 21 21
31 30 28 28 26 28 27 26 26 26 27 29 35 34 32 31 26 26 26 25 23 22 20 19 19 18 18 18 19 20 22 24
30 35 37 34 31 28 30 28 30 29 27 29 34 37 36 33 27 26 27 25 25 22 21 20 18 18 18 18 20 21 23 22
33 33 35 39 35 32 32 28 31 30 29 29 31 35 38 37 31 29 29 24 23 23 22 20 20 17 17 19 19 21 22 25
33 35 41 36 35 34 34 34 30 31 30 30 32 33 35 38 33 32 33 28 28 27 24 22 20 17 12 17 21 24 29 27
32 38 40 44 41 39 32 33 33 34 30 31 37 38 38 39 40 35 34 30 29 28 26 21 21 18 13 9 6 10 13 20
28 34 37 42 43 34 31 23 25 27 35 37 41 41 41 42 44 42 38 38 33 33 30 28 22 17 22 13 4 6 3 7
26 23 35 38 39 34 36 38 32 40 35 36 37 39 39 44 45 42 42 39 37 36 34 32 27 24 15 26 27 13 5 6
32 28 20 35 35 41 37 39 39 32 30 31 36 39 46 43 46 44 43 41 41 37 33 34 32 30 27 14 24 25 23 17
41 39 24 19 36 39 42 40 39 31 31 33 35 38 37 44 48 45 43 41 41 41 39 34 36 32 31 27 24 13 19 18
42 45 44 41 27 35 40 40 35 36 31 29 27 28 32 39 46 44 43 42 38 34 34 36 34 34 32 32 29 31 28 23
43 45 47 47 40 24 30 33 30 30 31 28 28 29 30 29 30 35 36 35 33 32 30 30 29 31 33 31 30 29 28 29